Location: Zlin
(49.2330°N, 17.6670°E)
Time: 17:47:00
(UTC+02:00)

X-37B - Visible Passes

Search period start: 21 September 2023 00:00
Search period end: 01 October 2023 00:00
Orbit: 277 x 277 km, 45.0° (Epoch: 01 November)

Date Brightness Start Highest point End Pass type
(mag) Time Alt. Az. Time Alt. Az. Time Alt. Az.
21 Sep 2.1 04:48:58 19° SSE 04:48:58 19° SSE 04:50:27 10° ESE visible
22 Sep 1.9 04:49:39 22° SE 04:49:39 22° SE 04:51:11 10° ESE visible
23 Sep 1.8 04:50:21 24° SE 04:50:21 24° SE 04:51:51 10° ESE visible
24 Sep 1.9 04:51:05 23° SE 04:51:05 23° SE 04:52:27 10° ESE visible
25 Sep 2.1 04:51:52 20° SE 04:51:52 20° SE 04:53:01 10° ESE visible
26 Sep 2.4 04:52:44 16° SE 04:52:44 16° SE 04:53:29 10° SE visible
27 Sep 2.9 04:53:41 11° SSE 04:53:41 11° SSE 04:53:51 10° SSE visible
